Location: Hamburg
(53.5511°N, 9.9937°E)
Time: 16:22:15
(UTC+02:00)

ISS - Pass Details

Date: 18 March 2026
Orbit: 416 x 425 km, 51.6° (Epoch: 19 April)

Event Time Altitude Azimuth Distance (km) Brightness Sun altitude
Rises 18:59:25 0° 244° (WSW) 2,385 1.2 -5.2°
Reaches altitude 10° 19:01:34 10° 238° (WSW) 1,519 0.0 -5.6°
Maximum altitude 19:04:51 46° 164° (SSE) 581 -3.2 -6.0°
Drops below altitude 10° 19:08:09 10° 90° (E) 1,518 -1.6 -6.5°
Enters shadow 19:08:26 - 88° (E) 1,636 -1.4 -6.6°
